| time (UTC) | temp F | wind direction | speed MPH | gust MPH | rain 1hr in | rain 24hr in | rain mn in | humidity % | barometer mb |
| 20260902110022 | 56 | 225 | 4.0 | 9.0 | 0.00 | 0.00 | 0.00 | 56 | 1025.2 |
| 20260902105022 | 56 | 203 | 4.0 | 8.0 | 0.00 | 0.00 | 0.00 | 56 | 1025.3 |
| 20260902104022 | 56 | 225 | 4.0 | 7.0 | 0.00 | 0.00 | 0.00 | 55 | 1025.5 |
| 20260902103016 | 57 | 225 | 3.0 | 8.0 | 0.00 | 0.00 | 0.00 | 54 | 1025.4 |
| 20260902102016 | 56 | 225 | 4.0 | 8.0 | 0.00 | 0.00 | 0.00 | 55 | 1025.6 |
| 20260902101022 | 56 | 225 | 4.0 | 7.0 | 0.00 | 0.00 | 0.00 | 55 | 1025.7 |
| 20260902100022 | 56 | 225 | 4.0 | 6.0 | 0.00 | 0.00 | 0.00 | 55 | 1025.7 |
| 20260902095042 | 55 | 225 | 4.0 | 9.0 | 0.00 | 0.00 | 0.00 | 55 | 1025.6 |
| 20260902094022 | 56 | 248 | 5.0 | 11.0 | 0.00 | 0.00 | 0.00 | 55 | 1025.4 |
| 20260902093022 | 55 | 225 | 4.0 | 8.0 | 0.00 | 0.00 | 0.00 | 56 | 1025.4 |
| 20260902092016 | 56 | 225 | 7.0 | 12.0 | 0.00 | 0.00 | 0.00 | 55 | 1025.6 |
| 20260902091022 | 55 | 225 | 7.0 | 11.0 | 0.00 | 0.00 | 0.00 | 56 | 1025.6 |
| 20260902090022 | 55 | 225 | 6.0 | 11.0 | 0.00 | 0.00 | 0.00 | 56 | 1025.7 |
| 20260902085022 | 55 | 225 | 5.0 | 9.0 | 0.00 | 0.00 | 0.00 | 55 | 1025.7 |
| 20260902084022 | 55 | 225 | 5.0 | 10.0 | 0.00 | 0.00 | 0.00 | 55 | 1025.6 |
| 20260902083022 | 55 | 225 | 6.0 | 11.0 | 0.00 | 0.00 | 0.00 | 57 | 1025.7 |
| 20260902082016 | 55 | 225 | 6.0 | 9.0 | 0.00 | 0.00 | 0.00 | 57 | 1025.7 |
| 20260902081022 | 56 | 225 | 6.0 | 9.0 | 0.00 | 0.00 | 0.00 | 55 | 1025.7 |
| 20260902080022 | 56 | 225 | 5.0 | 8.0 | 0.00 | 0.00 | 0.00 | 54 | 1025.8 |
| 20260902075022 | 56 | 225 | 5.0 | 9.0 | 0.00 | 0.00 | 0.00 | 54 | 1025.8 |
| 20260902074021 | 56 | 225 | 5.0 | 8.0 | 0.00 | 0.00 | 0.00 | 56 | 1025.9 |
| 20260902073022 | 56 | 203 | 6.0 | 9.0 | 0.00 | 0.00 | 0.00 | 54 | 1025.9 |
| 20260902072041 | 57 | 225 | 7.0 | 11.0 | 0.00 | 0.00 | 0.00 | 53 | 1026.1 |
| 20260902071016 | 57 | 225 | 6.0 | 11.0 | 0.00 | 0.00 | 0.00 | 52 | 1026.2 |
| 20260902070022 | 57 | 225 | 6.0 | 12.0 | 0.00 | 0.00 | 0.00 | 52 | 1026.2 |
| 20260902065016 | 57 | 225 | 6.0 | 10.0 | 0.00 | 0.00 | 0.00 | 53 | 1026.3 |
| 20260902064036 | 56 | 225 | 6.0 | 10.0 | 0.00 | 0.00 | 0.00 | 54 | 1026.0 |
| 20260902063042 | 56 | 225 | 6.0 | 9.0 | 0.00 | 0.00 | 0.00 | 55 | 1026.0 |
| 20260902062022 | 55 | 203 | 6.0 | 9.0 | 0.00 | 0.00 | 0.00 | 56 | 1025.9 |
| 20260902061021 | 55 | 203 | 5.0 | 8.0 | 0.00 | 0.00 | 0.00 | 55 | 1025.9 |
| 20260902060016 | 55 | 225 | 5.0 | 7.0 | 0.00 | 0.00 | 0.00 | 56 | 1026.0 |
| 20260902055021 | 55 | 203 | 5.0 | 7.0 | 0.00 | 0.00 | 0.00 | 55 | 1025.9 |
| 20260902054021 | 56 | 225 | 4.0 | 6.0 | 0.00 | 0.00 | 0.00 | 52 | 1025.7 |
| 20260902053021 | 57 | 225 | 5.0 | 7.0 | 0.00 | 0.00 | 0.00 | 51 | 1025.8 |
| 20260902052015 | 56 | 225 | 5.0 | 9.0 | 0.00 | 0.00 | 0.00 | 51 | 1025.7 |
| 20260902051021 | 56 | 225 | 6.0 | 11.0 | 0.00 | 0.00 | 0.00 | 53 | 1025.7 |
| 20260902050021 | 56 | 203 | 7.0 | 10.0 | 0.00 | 0.00 | 0.00 | 53 | 1025.7 |
| 20260902045015 | 57 | 203 | 5.0 | 7.0 | 0.00 | 0.00 | 0.00 | 53 | 1025.8 |
| 20260902044015 | 59 | 248 | 3.0 | 5.0 | 0.00 | 0.00 | 0.00 | 47 | 1026.1 |
| 20260902043041 | 59 | 225 | 4.0 | 8.0 | 0.00 | 0.00 | 0.00 | 48 | 1026.2 |
| 20260902042015 | 59 | 225 | 6.0 | 10.0 | 0.00 | 0.00 | 0.00 | 48 | 1026.3 |
| 20260902041021 | 59 | 225 | 4.0 | 7.0 | 0.00 | 0.00 | 0.00 | 48 | 1026.0 |
| 20260902040021 | 59 | 203 | 3.0 | 4.0 | 0.00 | 0.00 | 0.00 | 48 | 1026.1 |
| 20260902035016 | 60 | 203 | 4.0 | 5.0 | 0.00 | 0.00 | 0.00 | 47 | 1026.0 |
| 20260902034021 | 60 | 225 | 2.0 | 6.0 | 0.00 | 0.00 | 0.00 | 47 | 1025.9 |
| 20260902033056 | 60 | 293 | 2.0 | 4.0 | 0.00 | 0.00 | 0.00 | 48 | 1025.6 |
| 20260902032035 | 60 | 203 | 4.0 | 6.0 | 0.00 | 0.00 | 0.00 | 48 | 1025.7 |
| 20260902031021 | 61 | 203 | 3.0 | 5.0 | 0.00 | 0.00 | 0.00 | 45 | 1025.5 |
| 20260902030021 | 62 | 225 | 3.0 | 6.0 | 0.00 | 0.01 | 0.00 | 44 | 1025.9 |
| 20260902025021 | 63 | 225 | 4.0 | 6.0 | 0.00 | 0.03 | 0.00 | 43 | 1025.7 |
| 20260902024016 | 63 | 270 | 3.0 | 4.0 | 0.00 | 0.05 | 0.00 | 42 | 1025.6 |
| 20260902023021 | 64 | 203 | 3.0 | 6.0 | 0.00 | 0.07 | 0.00 | 41 | 1025.9 |
| 20260902022021 | 64 | 225 | 3.0 | 8.0 | 0.00 | 0.10 | 0.00 | 40 | 1025.7 |
| 20260902021021 | 64 | 225 | 3.0 | 7.0 | 0.00 | 0.10 | 0.00 | 40 | 1025.4 |
| 20260902020041 | 64 | 225 | 3.0 | 6.0 | 0.00 | 0.10 | 0.00 | 39 | 1025.2 |
| 20260902015021 | 65 | 248 | 4.0 | 9.0 | 0.00 | 0.10 | 0.00 | 39 | 1025.4 |
| 20260902014055 | 65 | 225 | 3.0 | 7.0 | 0.00 | 0.10 | 0.00 | 38 | 1025.1 |
| 20260902013021 | 66 | 248 | 3.0 | 6.0 | 0.00 | 0.10 | 0.00 | 38 | 1025.1 |
| 20260902012021 | 66 | 248 | 4.0 | 7.0 | 0.00 | 0.10 | 0.00 | 37 | 1025.0 |
| 20260902011021 | 67 | 248 | 4.0 | 8.0 | 0.00 | 0.10 | 0.00 | 36 | 1024.9 |
| 20260902010021 | 67 | 270 | 3.0 | 8.0 | 0.00 | 0.10 | 0.00 | 35 | 1024.7 |
| 20260902005021 | 68 | 270 | 4.0 | 8.0 | 0.00 | 0.10 | 0.00 | 34 | 1024.9 |
| 20260902004015 | 69 | 270 | 7.0 | 13.0 | 0.00 | 0.10 | 0.00 | 33 | 1025.0 |
| 20260902003021 | 69 | 270 | 5.0 | 10.0 | 0.00 | 0.10 | 0.00 | 34 | 1025.0 |
| 20260902002041 | 70 | 270 | 2.0 | 5.0 | 0.00 | 0.12 | 0.00 | 33 | 1025.2 |
| 20260902001035 | 69 | 270 | 5.0 | 11.0 | 0.00 | 0.12 | 0.00 | 33 | 1025.2 |
| 20260902000015 | 69 | 270 | 9.0 | 18.0 | 0.00 | 0.13 | 0.00 | 32 | 1025.2 |
| 20260901235021 | 70 | 270 | 9.0 | 17.0 | 0.00 | 0.13 | 0.00 | 32 | 1025.1 |
| 20260901234016 | 70 | 248 | 5.0 | 11.0 | 0.00 | 0.13 | 0.00 | 32 | 1025.0 |
| 20260901233015 | 70 | 270 | 11.0 | 19.0 | 0.00 | 0.13 | 0.00 | 32 | 1025.1 |
| 20260901232015 | 70 | 270 | 11.0 | 24.0 | 0.00 | 0.13 | 0.00 | 31 | 1025.1 |
| 20260901231016 | 70 | 270 | 9.0 | 16.0 | 0.00 | 0.13 | 0.00 | 31 | 1025.0 |
| 20260901230035 | 70 | 270 | 13.0 | 24.0 | 0.00 | 0.13 | 0.00 | 31 | 1025.1 |
| 20260901225021 | 70 | 270 | 12.0 | 20.0 | 0.00 | 0.13 | 0.00 | 33 | 1025.1 |
| 20260901224015 | 70 | 270 | 10.0 | 19.0 | 0.00 | 0.13 | 0.00 | 33 | 1025.4 |
| 20260901223041 | 70 | 270 | 11.0 | 19.0 | 0.00 | 0.13 | 0.00 | 34 | 1025.4 |
| 20260901222019 | 70 | 270 | 10.0 | 21.0 | 0.00 | 0.13 | 0.00 | 35 | 1025.4 |
| 20260901221021 | 70 | 293 | 14.0 | 22.0 | 0.00 | 0.13 | 0.00 | 34 | 1025.2 |
| 20260901220041 | 72 | 270 | 7.0 | 16.0 | 0.00 | 0.13 | 0.00 | 32 | 1025.5 |
| 20260901215035 | 71 | 270 | 7.0 | 20.0 | 0.00 | 0.13 | 0.00 | 34 | 1025.8 |
| 20260901214021 | 71 | 203 | 7.0 | 14.0 | 0.00 | 0.13 | 0.00 | 33 | 1025.7 |
| 20260901213021 | 71 | 225 | 8.0 | 16.0 | 0.00 | 0.13 | 0.00 | 34 | 1026.0 |
| 20260901212015 | 70 | 203 | 6.0 | 13.0 | 0.00 | 0.13 | 0.00 | 34 | 1025.8 |
| 20260901211020 | 69 | 270 | 8.0 | 23.0 | 0.00 | 0.13 | 0.00 | 34 | 1025.9 |
| 20260901210041 | 70 | 248 | 10.0 | 24.0 | 0.00 | 0.13 | 0.00 | 33 | 1026.0 |
| 20260901205020 | 69 | 225 | 9.0 | 20.0 | 0.00 | 0.13 | 0.00 | 34 | 1026.0 |
| 20260901204020 | 69 | 270 | 9.0 | 16.0 | 0.00 | 0.13 | 0.00 | 35 | 1026.1 |
| 20260901203015 | 68 | 270 | 12.0 | 20.0 | 0.00 | 0.13 | 0.00 | 34 | 1025.8 |
| 20260901202020 | 70 | 270 | 10.0 | 18.0 | 0.00 | 0.13 | 0.00 | 36 | 1026.0 |
| 20260901201041 | 69 | 270 | 6.0 | 14.0 | 0.00 | 0.13 | 0.00 | 38 | 1026.0 |
| 20260901200020 | 68 | 270 | 12.0 | 20.0 | 0.00 | 0.13 | 0.00 | 39 | 1026.2 |
| 20260901195020 | 69 | 270 | 11.0 | 25.0 | 0.00 | 0.13 | 0.00 | 40 | 1026.2 |
| 20260901194041 | 70 | 225 | 5.0 | 11.0 | 0.00 | 0.13 | 0.00 | 38 | 1026.5 |
| 20260901193040 | 71 | 225 | 5.0 | 14.0 | 0.00 | 0.13 | 0.00 | 38 | 1026.4 |
| 20260901192020 | 70 | 203 | 6.0 | 12.0 | 0.00 | 0.13 | 0.00 | 38 | 1026.1 |
| 20260901191041 | 70 | 270 | 8.0 | 18.0 | 0.00 | 0.13 | 0.00 | 40 | 1026.2 |
| 20260901190020 | 69 | 203 | 8.0 | 15.0 | 0.00 | 0.13 | 0.00 | 40 | 1026.1 |
| 20260901185021 | 69 | 270 | 8.0 | 15.0 | 0.00 | 0.13 | 0.00 | 41 | 1026.3 |
| 20260901184020 | 68 | 203 | 7.0 | 19.0 | 0.00 | 0.13 | 0.00 | 41 | 1026.3 |
| 20260901183021 | 67 | 225 | 9.0 | 17.0 | 0.00 | 0.13 | 0.00 | 43 | 1026.1 |
| 20260901182020 | 68 | 203 | 6.0 | 15.0 | 0.00 | 0.13 | 0.00 | 42 | 1026.5 |
| 20260901181015 | 68 | 203 | 7.0 | 16.0 | 0.00 | 0.13 | 0.00 | 43 | 1026.3 |
| 20260901180020 | 68 | 180 | 5.0 | 12.0 | 0.00 | 0.13 | 0.00 | 44 | 1026.5 |
| 20260901175040 | 67 | 225 | 8.0 | 18.0 | 0.00 | 0.13 | 0.00 | 43 | 1026.4 |
| 20260901174041 | 67 | 203 | 7.0 | 16.0 | 0.00 | 0.13 | 0.00 | 43 | 1026.3 |
| 20260901173035 | 67 | 203 | 5.0 | 16.0 | 0.00 | 0.13 | 0.00 | 46 | 1026.4 |
| 20260901172020 | 65 | 203 | 7.0 | 16.0 | 0.00 | 0.13 | 0.00 | 46 | 1026.3 |
| 20260901171020 | 65 | 203 | 7.0 | 15.0 | 0.00 | 0.13 | 0.00 | 46 | 1026.4 |
| 20260901170020 | 65 | 225 | 3.0 | 11.0 | 0.00 | 0.13 | 0.00 | 46 | 1026.3 |
| 20260901165037 | 64 | 203 | 4.0 | 19.0 | 0.00 | 0.13 | 0.00 | 48 | 1026.4 |
| 20260901164017 | 64 | 203 | 6.0 | 13.0 | 0.00 | 0.13 | 0.00 | 51 | 1026.4 |
| 20260901163022 | 63 | 203 | 3.0 | 9.0 | 0.00 | 0.13 | 0.00 | 53 | 1026.1 |
| 20260901162015 | 63 | 180 | 4.0 | 12.0 | 0.00 | 0.13 | 0.00 | 57 | 1026.2 |
| 20260901161042 | 63 | 203 | 4.0 | 10.0 | 0.00 | 0.13 | 0.00 | 56 | 1026.0 |
| 20260901160017 | 62 | 203 | 7.0 | 16.0 | 0.00 | 0.13 | 0.00 | 56 | 1025.8 |
| 20260901155017 | 61 | 225 | 5.0 | 15.0 | 0.00 | 0.13 | 0.00 | 59 | 1025.8 |
| 20260901154022 | 60 | 225 | 5.0 | 10.0 | 0.00 | 0.13 | 0.00 | 64 | 1025.7 |
| 20260901153017 | 59 | 225 | 6.0 | 12.0 | 0.00 | 0.13 | 0.00 | 63 | 1025.6 |
| 20260901152017 | 58 | 203 | 5.0 | 11.0 | 0.00 | 0.13 | 0.00 | 66 | 1025.8 |
| 20260901151056 | 57 | 225 | 4.0 | 12.0 | 0.00 | 0.13 | 0.00 | 69 | 1025.6 |
| 20260901150017 | 57 | 225 | 7.0 | 14.0 | 0.00 | 0.13 | 0.00 | 68 | 1025.6 |
| 20260901145017 | 56 | 225 | 6.0 | 14.0 | 0.00 | 0.13 | 0.00 | 69 | 1025.4 |
| 20260901144022 | 56 | 225 | 5.0 | 11.0 | 0.00 | 0.13 | 0.00 | 71 | 1025.5 |
| 20260901143017 | 56 | 225 | 6.0 | 12.0 | 0.00 | 0.13 | 0.00 | 70 | 1025.4 |
| 20260901142022 | 56 | 225 | 7.0 | 14.0 | 0.00 | 0.13 | 0.00 | 71 | 1025.4 |
| 20260901141016 | 55 | 225 | 5.0 | 12.0 | 0.00 | 0.13 | 0.00 | 72 | 1025.5 |
| 20260901140022 | 55 | 225 | 5.0 | 11.0 | 0.00 | 0.13 | 0.00 | 73 | 1025.4 |
| 20260901135022 | 55 | 225 | 5.0 | 11.0 | 0.00 | 0.13 | 0.00 | 72 | 1025.4 |
| 20260901134017 | 55 | 248 | 5.0 | 11.0 | 0.00 | 0.13 | 0.00 | 73 | 1025.3 |
| 20260901133016 | 53 | 270 | 5.0 | 10.0 | 0.00 | 0.13 | 0.00 | 77 | 1024.9 |
| 20260901132022 | 53 | 225 | 3.0 | 8.0 | 0.00 | 0.13 | 0.00 | 78 | 1024.7 |
| 20260901131020 | 52 | 225 | 4.0 | 7.0 | 0.00 | 0.13 | 0.00 | 82 | 1024.5 |
| 20260901130017 | 52 | 203 | 4.0 | 7.0 | 0.00 | 0.13 | 0.00 | 84 | 1024.1 |
| 20260901125016 | 50 | 203 | 4.0 | 8.0 | 0.00 | 0.13 | 0.00 | 88 | 1024.0 |
| 20260901124016 | 50 | 225 | 3.0 | 6.0 | 0.00 | 0.13 | 0.00 | 89 | 1023.9 |
| 20260901123016 | 50 | 225 | 2.0 | 5.0 | 0.00 | 0.13 | 0.00 | 90 | 1023.8 |
| 20260901122017 | 50 | 203 | 5.0 | 8.0 | 0.00 | 0.13 | 0.00 | 90 | 1023.7 |
| 20260901121022 | 50 | 203 | 5.0 | 7.0 | 0.00 | 0.13 | 0.00 | 90 | 1024.3 |
| 20260901120016 | 50 | 203 | 5.0 | 7.0 | 0.00 | 0.13 | 0.00 | 90 | 1024.2 |
| 20260901115022 | 51 | 203 | 4.0 | 6.0 | 0.00 | 0.13 | 0.00 | 86 | 1024.3 |
| 20260901114022 | 51 | 225 | 5.0 | 8.0 | 0.00 | 0.13 | 0.00 | 86 | 1024.5 |
| 20260901113017 | 51 | 225 | 5.0 | 9.0 | 0.00 | 0.13 | 0.00 | 86 | 1024.4 |
| 20260901112022 | 50 | 225 | 6.0 | 10.0 | 0.00 | 0.13 | 0.00 | 90 | 1024.2 |
| 20260901111022 | 50 | 225 | 4.0 | 7.0 | 0.00 | 0.13 | 0.00 | 90 | 1024.7 |